Dewpoint
71 71 70 71 71 72 72 71 70 70 70 68 67 67 68 67 63 60 61 62 67 66 65 63 63 64 64 62 62 65 65 65 63
72 71 71 71 71 71 71 71 70 70 70 68 67 68 68 65 61 58 57 61 66 64 65 64 63 63 62 62 62 59 60 60 62
71 71 71 71 70 71 71 72 71 70 69 69 69 68 66 62 60 59 57 66 64 62 63 65 65 64 61 62 62 62 60 62 62
70 71 71 72 71 71 71 71 71 71 70 70 70 68 67 63 61 60 59 66 64 63 63 66 65 63 63 62 64 62 62 61 60
70 70 70 71 71 71 70 71 71 71 70 70 69 68 67 65 62 60 59 67 65 65 64 65 65 64 65 63 63 63 61 61 62
61 62 67 69 70 71 71 70 70 70 69 69 68 68 67 65 63 61 64 68 65 65 67 67 65 65 65 66 64 62 62 62 62
50 54 59 64 67 69 70 71 70 68 67 68 68 67 66 65 62 61 66 68 66 65 67 69 68 67 67 66 65 62 62 62 62
46 49 55 61 63 67 68 68 69 68 66 65 66 67 65 63 62 62 66 68 67 66 67 69 69 68 68 67 65 63 63 63 63
43 42 44 46 49 57 65 67 68 68 67 66 64 66 65 64 62 61 65 67 68 67 67 68 69 68 68 66 66 66 65 63 65
43 42 42 43 43 43 45 53 63 67 67 67 66 66 65 65 64 62 63 66 67 68 67 66 66 67 67 67 67 67 67 65 63
47 46 44 43 43 43 42 43 44 53 63 65 66 66 66 66 64 63 63 64 66 67 68 67 67 67 67 68 68 68 67 67 66
49 49 48 47 45 43 43 42 42 42 44 50 63 65 66 65 65 66 65 63 63 66 68 68 68 69 68 68 69 68 67 67 67
49 50 50 49 48 47 45 44 44 43 43 43 47 55 60 64 64 65 65 66 63 63 65 66 67 68 69 67 68 69 68 67 67
49 50 50 49 49 49 48 46 46 45 45 45 44 46 50 59 61 63 64 64 65 65 62 63 64 66 68 69 68 69 68 67 67
43 47 49 49 49 48 48 47 47 46 46 44 44 45 48 50 52 58 63 64 64 65 64 63 62 63 65 67 68 69 68 68 67
39 40 42 46 47 48 47 46 46 46 47 46 45 46 47 46 45 45 45 52 62 64 64 64 63 61 62 64 66 67 69 68 68
42 43 44 43 44 46 47 47 47 46 47 45 45 43 43 46 47 47 45 45 46 53 63 63 64 63 61 60 63 64 66 68 69
44 42 42 41 43 45 47 47 47 47 47 46 45 43 42 44 45 44 44 44 46 47 49 61 63 63 63 62 60 61 63 65 67
43 43 41 41 43 45 47 47 47 47 47 47 46 46 45 43 41 44 44 45 45 44 46 52 58 60 62 61 60 60 60 63 64
42 43 42 41 44 44 46 48 47 46 46 47 46 45 45 45 43 41 41 44 45 46 46 48 50 57 59 60 60 60 62 63 64
Lifted_Index
-3 -3 -2 -2 -3 -3 -3 -2 -1 -1 -1 -0 0 1 1 2 3 3 3 2 1 1 2 3 3 3 4 4 4 3 3 4 4
-3 -2 -2 -2 -2 -3 -3 -3 -2 -1 -1 -0 0 1 1 2 3 3 3 2 2 2 2 3 3 3 4 4 4 4 4 4 4
-2 -2 -2 -2 -2 -2 -3 -3 -2 -2 -1 -1 -0 0 1 2 3 3 3 2 2 2 2 2 2 3 4 4 4 4 4 4 4
-2 -2 -2 -2 -2 -2 -2 -2 -2 -2 -1 -1 -1 -0 1 2 3 3 3 2 2 2 2 2 2 3 3 4 4 4 4 4 4
-0 -1 -1 -2 -2 -2 -2 -2 -2 -2 -2 -1 -1 -1 -0 1 2 3 2 2 2 2 2 1 1 2 3 3 3 4 4 4 4
2 2 1 0 -1 -1 -2 -2 -2 -2 -2 -1 -1 -1 -0 0 1 2 2 1 1 1 1 1 1 1 2 2 3 4 4 4 4
6 5 4 3 1 -0 -1 -2 -2 -1 -1 -1 -1 -1 -0 0 1 1 1 1 1 1 0 -0 0 1 1 2 3 3 3 3 3
10 9 8 6 4 1 -0 -1 -2 -1 -1 -1 -1 -1 -0 -0 0 1 1 0 0 1 0 -0 -1 -0 0 1 2 2 3 3 3
12 11 10 9 7 5 2 0 -1 -1 -1 -1 -1 -1 -1 -1 -0 0 0 0 0 0 0 -0 -1 -1 -0 0 1 1 2 2 2
12 12 12 11 10 9 6 4 2 0 -1 -1 -1 -1 -1 -1 -1 -0 -0 -0 -0 -0 -0 -0 -0 -1 -1 -1 -1 -0 0 1 1
11 11 11 11 11 11 10 9 7 4 2 0 -1 -1 -1 -1 -1 -1 -1 -1 -1 -1 -1 -0 -1 -1 -1 -1 -1 -1 -1 -0 0
11 11 11 11 11 11 11 11 10 9 6 4 2 1 -1 -1 -1 -1 -1 -1 -1 -1 -1 -1 -1 -1 -2 -2 -2 -2 -2 -1 -1
11 11 11 11 11 11 11 11 11 11 10 8 7 4 2 0 -1 -1 -1 -1 -1 -1 -1 -1 -1 -2 -2 -2 -2 -2 -2 -2 -1
12 11 11 10 10 10 10 10 10 11 10 10 9 8 6 4 2 0 -1 -1 -1 -1 -1 -1 -1 -1 -2 -2 -2 -2 -2 -2 -2
14 13 12 11 10 10 10 10 10 10 10 10 10 9 9 7 6 4 2 0 -1 -1 -1 -1 -1 -1 -1 -2 -2 -2 -3 -3 -2
14 14 13 12 11 10 10 10 10 10 10 10 10 10 9 9 8 7 5 4 2 1 -0 -1 -1 -1 -1 -1 -1 -2 -2 -3 -3
12 12 12 11 11 10 10 10 10 10 10 9 9 9 9 9 8 8 7 7 6 4 1 -0 -1 -1 -1 -1 -1 -1 -2 -2 -2
10 10 10 10 10 10 11 10 10 10 9 9 9 9 9 8 8 8 8 8 7 6 4 2 0 -1 -1 -1 -1 -1 -1 -1 -1
10 11 10 10 10 11 11 11 10 10 10 10 10 10 9 9 9 9 9 8 8 8 7 5 3 1 0 -0 -0 -1 -1 -1 -1
11 11 10 10 11 11 11 11 10 10 10 10 10 10 10 10 10 10 9 9 9 9 8 7 5 3 2 1 0 -0 -1 -1 -1